Weather History for Concordia, KS

Change the Weather History Date:

Thursday, September 26, 2013

  Actual Average Record
Temperature  
Mean Temperature 79 °F 63 °F  
Max Temperature 93 °F 75 °F 94 °F (1897)
Min Temperature 64 °F 51 °F 31 °F (1984)
Degree Days  
Heating Degree Days 0 4  
Month to date heating degree days 9 50  
Since 1 July heating degree days 16 53  
Cooling Degree Days 14 3  
Month to date cooling degree days 225 150  
Year to date cooling degree days 1310 1316  
Growing Degree Days 28 (Base 50)    
Moisture  
Dew Point 56 °F    
Average Humidity 51    
Maximum Humidity 73    
Minimum Humidity 28    
Precipitation  
Precipitation 0.00 in 0.09 in 1.56 in (1973)
Month to date precipitation 0.56 2.55  
Year to date precipitation 24.13 23.65  
Snow  
Snow 0.00 in 0.00 in T in (1926)
Month to date snowfall 0.0 0.0  
Year to date snowfall 20.3 13.7  
Since 1 July snowfall 0.0 0.0  
Snow Depth 0.00 in    
Sea Level Pressure  
Sea Level Pressure 29.70 in    
Wind  
Wind Speed 20 mph (SSE)    
Max Wind Speed 32 mph    
Max Gust Speed 43 mph    
Visibility 10 miles    
Events      
T = Trace of Precipitation, MM = Missing Value Source: NWS Daily Summary

Daily Weather History Graph

Daily Weather History Graph

Search for Another Location

Airport:

Trip Planner

Search our weather history database for the weather conditions in past years. The results will help you decide how hot, cold, wet, or windy it might be!

Date:

Astronomy

Sep. 26, 2013 Rise Set
Actual Time 7:22 AM CDT 7:20 PM CDT
Civil Twilight 6:55 AM CDT 7:47 PM CDT
Nautical Twilight 6:24 AM CDT 8:18 PM CDT
Astronomical Twilight 5:52 AM CDT 8:50 PM CDT
Moon No Moon Rise 2:14 PM CDT (9/26)
Length of Visible Light 12h 52m
Length of Day
11h 58m
Waning Gibbous, 54% of the Moon is Illuminated
Sep 26
Waning Gibbous
Sep 26
Last Quarter
Oct 4
New
Oct 11
First Quarter
Oct 18
Full

Hourly Weather History & Observations

Time (CDT) Temp. Heat Index Dew Point Humidity Pressure Visibility Wind Dir Wind Speed Gust Speed Precip Events Conditions
12:55 AM 66.0 °F - 57.0 °F 73% 29.69 in 10.0 mi SE 15.0 mph 23.0 mph N/A   Clear
1:55 AM 66.0 °F - 55.9 °F 70% 29.69 in 10.0 mi SE 19.6 mph 23.0 mph N/A   Clear
2:55 AM 64.9 °F - 55.9 °F 73% 29.70 in 10.0 mi SSE 15.0 mph - N/A   Clear
3:55 AM 64.9 °F - 55.9 °F 73% 29.69 in 10.0 mi SSE 17.3 mph - N/A   Clear
4:55 AM 64.9 °F - 55.9 °F 73% 29.68 in 10.0 mi SSE 18.4 mph 26.5 mph N/A   Clear
5:55 AM 64.0 °F - 55.9 °F 75% 29.68 in 10.0 mi SE 17.3 mph - N/A   Clear
6:55 AM 64.0 °F - 55.0 °F 73% 29.69 in 10.0 mi SSE 16.1 mph 26.5 mph N/A   Clear
7:55 AM 64.9 °F - 54.0 °F 68% 29.71 in 10.0 mi SE 15.0 mph - N/A   Clear
8:55 AM 70.0 °F - 54.0 °F 57% 29.70 in 9.0 mi SSE 20.7 mph 33.4 mph N/A   Clear
11:55 AM 82.9 °F 82.0 °F 55.0 °F 38% 29.74 in 10.0 mi SSE 25.3 mph 32.2 mph N/A   Clear
12:55 PM 87.1 °F 85.3 °F 55.0 °F 33% 29.72 in 9.0 mi SSE 23.0 mph 32.2 mph N/A   Clear
1:55 PM 89.1 °F 87.1 °F 55.0 °F 31% 29.71 in 10.0 mi SSE 25.3 mph 35.7 mph N/A   Clear
2:55 PM 91.9 °F 89.5 °F 54.0 °F 27% 29.69 in 10.0 mi SSE 20.7 mph 39.1 mph N/A   Clear
3:55 PM 91.9 °F 90.0 °F 55.0 °F 29% 29.68 in 10.0 mi SSE 25.3 mph 40.3 mph N/A   Clear
4:55 PM 91.0 °F 88.9 °F 55.0 °F 29% 29.68 in 9.0 mi SSE 21.9 mph 43.7 mph N/A   Clear
5:55 PM 89.1 °F 87.1 °F 55.0 °F 31% 29.69 in 10.0 mi SSE 26.5 mph 34.5 mph N/A   Clear
6:55 PM 86.0 °F 84.7 °F 55.9 °F 36% 29.70 in 10.0 mi SSE 21.9 mph 34.5 mph N/A   Clear
7:55 PM 82.0 °F 81.6 °F 55.9 °F 41% 29.72 in 10.0 mi SSE 18.4 mph 25.3 mph N/A   Clear
8:55 PM 79.0 °F - 57.0 °F 47% 29.74 in 10.0 mi SE 17.3 mph - N/A   Clear
9:55 PM 77.0 °F - 61.0 °F 58% 29.74 in 10.0 mi SSE 24.2 mph 31.1 mph N/A   Clear
10:55 PM 75.9 °F - 60.1 °F 58% 29.76 in 10.0 mi SSE 23.0 mph 29.9 mph N/A   Clear
11:55 PM 75.9 °F - 59.0 °F 56% 29.71 in 10.0 mi SSE 21.9 mph 34.5 mph N/A   Clear